JST809 YBCS-YBSU

Flight info

Callsign JST809
Flight time 1h 41m
Altitude 35000
Route AKROM Y177 RUROX W727 SUSGI W534 SEBVA
Aircraft A320/M-SDE3FGHIRWY/LB1

Departure

Time 2026-04-26 22:16
Airport Cairns International Airport (YBCS)

Arrival

Time 2026-04-26 23:58
Airport Sunshine Coast Airport (YBSU)
Time Latitude Longitude Altitude Speed Heading
2026-04-26 21:46 -16.87720 145.75274 18 ft 0 kts 68°
2026-04-26 22:07 -16.87730 145.75252 17 ft 4 kts 61°
2026-04-26 22:07 -16.87744 145.75228 17 ft 4 kts 52°
2026-04-26 22:07 -16.87762 145.75207 19 ft 4 kts 37°
2026-04-26 22:07 -16.87785 145.75195 19 ft 4 kts
2026-04-26 22:08 -16.87798 145.75196 16 ft 0 kts 335°
2026-04-26 22:11 -16.87788 145.75191 16 ft 4 kts 335°
2026-04-26 22:11 -16.87748 145.75172 16 ft 8 kts 337°
2026-04-26 22:12 -16.87683 145.75143 16 ft 12 kts 337°
2026-04-26 22:12 -16.87598 145.75118 16 ft 14 kts 349°
2026-04-26 22:12 -16.87507 145.75078 16 ft 15 kts 335°
2026-04-26 22:12 -16.87412 145.75032 8 ft 15 kts 336°
2026-04-26 22:13 -16.87324 145.74970 8 ft 17 kts 297°
2026-04-26 22:13 -16.87268 145.74865 7 ft 16 kts 320°
2026-04-26 22:13 -16.87161 145.74816 7 ft 18 kts 336°
2026-04-26 22:13 -16.87058 145.74758 7 ft 16 kts 309°
2026-04-26 22:14 -16.87053 145.74698 6 ft 0 kts 249°
2026-04-26 22:15 -16.87054 145.74696 5 ft 2 kts 249°
2026-04-26 22:15 -16.87070 145.74653 6 ft 11 kts 248°
2026-04-26 22:15 -16.87109 145.74595 5 ft 7 kts 182°
2026-04-26 22:15 -16.87135 145.74604 5 ft 0 kts 156°
2026-04-26 22:16 -16.87238 145.74650 7 ft 51 kts 156°
2026-04-26 22:16 -16.87794 145.74903 19 ft 118 kts 156°
2026-04-26 22:16 -16.88699 145.75318 156 ft 155 kts 155°
2026-04-26 22:16 -16.89591 145.75870 818 ft 154 kts 127°
2026-04-26 22:17 -16.89884 145.76942 1377 ft 158 kts 86°
2026-04-26 22:17 -16.89484 145.78008 1931 ft 162 kts 52°
2026-04-26 22:17 -16.88584 145.78735 2406 ft 169 kts 41°
2026-04-26 22:17 -16.87616 145.79440 2943 ft 167 kts 43°
2026-04-26 22:18 -16.86673 145.80164 3424 ft 174 kts 44°
2026-04-26 22:18 -16.85646 145.80981 3603 ft 197 kts 44°
2026-04-26 22:18 -16.84747 145.82041 4039 ft 195 kts 71°
2026-04-26 22:18 -16.84546 145.83429 4355 ft 203 kts 106°
2026-04-26 22:19 -16.85329 145.84720 4598 ft 226 kts 142°
2026-04-26 22:19 -16.86853 145.85410 4974 ft 252 kts 163°
2026-04-26 22:19 -16.88575 145.85878 5721 ft 258 kts 158°
2026-04-26 22:19 -16.90215 145.86679 6555 ft 261 kts 149°
2026-04-26 22:20 -16.91777 145.87646 7297 ft 267 kts 147°
2026-04-26 22:20 -16.92841 145.88355 7853 ft 269 kts 146°
2026-04-26 22:20 -16.94946 145.89784 8913 ft 274 kts 146°
2026-04-26 22:20 -16.96544 145.90857 9714 ft 278 kts 147°
2026-04-26 22:21 -16.96602 145.90896 9741 ft 278 kts 147°
2026-04-26 22:21 -16.97145 145.91255 10058 ft 275 kts 147°
2026-04-26 22:21 -16.98818 145.92351 10445 ft 295 kts 148°
2026-04-26 22:21 -17.00636 145.93523 10636 ft 318 kts 148°
2026-04-26 22:22 -17.02544 145.94744 10987 ft 332 kts 149°
2026-04-26 22:22 -17.04539 145.96015 11513 ft 339 kts 149°
2026-04-26 22:22 -17.06577 145.97311 12056 ft 346 kts 150°
2026-04-26 22:22 -17.08652 145.98629 12607 ft 351 kts 150°
2026-04-26 22:23 -17.10760 145.99969 13142 ft 356 kts 150°
2026-04-26 22:23 -17.12874 146.01316 13661 ft 361 kts 151°
2026-04-26 22:23 -17.15044 146.02701 14140 ft 366 kts 151°
2026-04-26 22:23 -17.17231 146.04094 14638 ft 369 kts 151°
2026-04-26 22:24 -17.19413 146.05486 15126 ft 373 kts 151°
2026-04-26 22:24 -17.21651 146.06915 15638 ft 377 kts 152°
2026-04-26 22:24 -17.23902 146.08355 16155 ft 380 kts 152°
2026-04-26 22:24 -17.26143 146.09788 16673 ft 383 kts 152°
2026-04-26 22:25 -17.28431 146.11247 17179 ft 386 kts 152°
2026-04-26 22:25 -17.30738 146.12721 17703 ft 389 kts 152°
2026-04-26 22:25 -17.33060 146.14204 18209 ft 392 kts 152°
2026-04-26 22:25 -17.35378 146.15682 18672 ft 395 kts 152°
2026-04-26 22:26 -17.37737 146.17185 19143 ft 397 kts 152°
2026-04-26 22:26 -17.40108 146.18698 19644 ft 399 kts 152°
2026-04-26 22:26 -17.42491 146.20221 20138 ft 401 kts 152°
2026-04-26 22:26 -17.44877 146.21750 20620 ft 403 kts 152°
2026-04-26 22:27 -17.47275 146.23288 21097 ft 405 kts 152°
2026-04-26 22:27 -17.49653 146.24813 21561 ft 407 kts 152°
2026-04-26 22:27 -17.52083 146.26371 22041 ft 409 kts 152°
2026-04-26 22:27 -17.54524 146.27936 22505 ft 411 kts 152°
2026-04-26 22:28 -17.56144 146.28975 22836 ft 411 kts 151°
2026-04-26 22:28 -17.58600 146.30548 23298 ft 413 kts 151°
2026-04-26 22:28 -17.61060 146.32122 23719 ft 415 kts 152°
2026-04-26 22:28 -17.63504 146.33686 24043 ft 418 kts 152°
2026-04-26 22:29 -17.65999 146.35285 24354 ft 422 kts 152°
2026-04-26 22:29 -17.68533 146.36910 24661 ft 425 kts 152°
2026-04-26 22:29 -17.71049 146.38528 24963 ft 429 kts 152°
2026-04-26 22:29 -17.73587 146.40160 25268 ft 432 kts 153°
2026-04-26 22:30 -17.76165 146.41817 25579 ft 436 kts 153°
2026-04-26 22:30 -17.78763 146.43488 25882 ft 439 kts 153°
2026-04-26 22:30 -17.81393 146.45177 26185 ft 443 kts 153°
2026-04-26 22:30 -17.84006 146.46857 26479 ft 446 kts 153°
2026-04-26 22:31 -17.86676 146.48573 26767 ft 450 kts 154°
2026-04-26 22:31 -17.89355 146.50300 27156 ft 451 kts 153°
2026-04-26 22:31 -17.92038 146.52033 27512 ft 453 kts 153°
2026-04-26 22:31 -17.94701 146.53752 27842 ft 456 kts 153°
2026-04-26 22:32 -17.97423 146.55505 28162 ft 459 kts 153°
2026-04-26 22:32 -18.00169 146.57268 28485 ft 462 kts 153°
2026-04-26 22:32 -18.02900 146.59023 28797 ft 465 kts 153°
2026-04-26 22:32 -18.05674 146.60811 29110 ft 468 kts 153°
2026-04-26 22:33 -18.08471 146.62619 29423 ft 471 kts 153°
2026-04-26 22:33 -18.14074 146.66236 30036 ft 477 kts 153°
2026-04-26 22:33 -18.16910 146.68070 30409 ft 477 kts 153°
2026-04-26 22:34 -18.19748 146.69906 30742 ft 478 kts 154°
2026-04-26 22:34 -18.22556 146.71719 31056 ft 479 kts 154°
2026-04-26 22:34 -18.25406 146.73559 31371 ft 481 kts 154°
2026-04-26 22:34 -18.28264 146.75405 31692 ft 482 kts 154°
2026-04-26 22:35 -18.31135 146.77264 32016 ft 484 kts 154°
2026-04-26 22:35 -18.34015 146.79129 32341 ft 485 kts 155°
2026-04-26 22:35 -18.36868 146.80960 32669 ft 485 kts 156°
2026-04-26 22:35 -18.39797 146.82752 32989 ft 485 kts 157°
2026-04-26 22:36 -18.42753 146.84481 33312 ft 486 kts 159°
2026-04-26 22:36 -18.45737 146.86187 33559 ft 489 kts 160°
2026-04-26 22:36 -18.48745 146.87904 33851 ft 491 kts 159°
2026-04-26 22:36 -18.51714 146.89608 34156 ft 493 kts 159°
2026-04-26 22:37 -18.54706 146.91349 34645 ft 488 kts 157°
2026-04-26 22:37 -18.57673 146.93091 34943 ft 487 kts 157°
2026-04-26 22:37 -18.60645 146.94838 35046 ft 489 kts 158°
2026-04-26 22:38 -18.66594 146.98329 35067 ft 494 kts 157°
2026-04-26 22:38 -18.72601 147.01871 35065 ft 494 kts 157°
2026-04-26 22:39 -18.78618 147.05428 35065 ft 494 kts 157°
2026-04-26 22:39 -18.84636 147.08976 35065 ft 494 kts 157°
2026-04-26 22:40 -18.90610 147.12505 35102 ft 493 kts 156°
2026-04-26 22:40 -18.96559 147.16015 35103 ft 490 kts 156°
2026-04-26 22:41 -19.02518 147.19531 35099 ft 489 kts 156°
2026-04-26 22:41 -19.08441 147.23034 35098 ft 488 kts 156°
2026-04-26 22:42 -19.14373 147.26550 35095 ft 488 kts 156°
2026-04-26 22:42 -19.20300 147.30066 35114 ft 487 kts 156°
2026-04-26 22:43 -19.26165 147.33538 35109 ft 484 kts 156°
2026-04-26 22:43 -19.32042 147.37025 35108 ft 482 kts 156°
2026-04-26 22:44 -19.37897 147.40497 35104 ft 482 kts 156°
2026-04-26 22:44 -19.43718 147.43957 35099 ft 482 kts 156°
2026-04-26 22:45 -19.49576 147.47444 35096 ft 482 kts 156°
2026-04-26 22:45 -19.55405 147.50913 35110 ft 481 kts 156°
2026-04-26 22:46 -19.61215 147.54375 35104 ft 481 kts 156°
2026-04-26 22:46 -19.67062 147.57864 35100 ft 481 kts 156°
2026-04-26 22:47 -19.72901 147.61350 35104 ft 480 kts 156°
2026-04-26 22:47 -19.78706 147.64820 35102 ft 480 kts 156°
2026-04-26 22:48 -19.84537 147.68304 35123 ft 480 kts 156°
2026-04-26 22:48 -19.90338 147.71766 35115 ft 481 kts 156°
2026-04-26 22:49 -19.96178 147.75266 35104 ft 481 kts 156°
2026-04-26 22:49 -20.01997 147.78752 35106 ft 481 kts 156°
2026-04-26 22:50 -20.07804 147.82232 35095 ft 481 kts 156°
2026-04-26 22:50 -20.13665 147.85744 35108 ft 481 kts 156°
2026-04-26 22:51 -20.19465 147.89225 35127 ft 481 kts 156°
2026-04-26 22:51 -20.25319 147.92746 35137 ft 481 kts 156°
2026-04-26 22:52 -20.31122 147.96237 35114 ft 481 kts 156°
2026-04-26 22:52 -20.36968 147.99754 35112 ft 482 kts 156°
2026-04-26 22:53 -20.42788 148.03257 35106 ft 482 kts 156°
2026-04-26 22:53 -20.48639 148.06787 35130 ft 482 kts 156°
2026-04-26 22:54 -20.54456 148.10304 35123 ft 483 kts 156°
2026-04-26 22:54 -20.60322 148.13845 35120 ft 483 kts 156°
2026-04-26 22:55 -20.66170 148.17376 35111 ft 483 kts 156°
2026-04-26 22:55 -20.71990 148.20894 35115 ft 483 kts 156°
2026-04-26 22:56 -20.77852 148.24451 35116 ft 483 kts 156°
2026-04-26 22:56 -20.83674 148.27988 35124 ft 484 kts 156°
2026-04-26 22:57 -20.89529 148.31548 35127 ft 484 kts 156°
2026-04-26 22:57 -20.95389 148.35107 35123 ft 484 kts 156°
2026-04-26 22:58 -21.01229 148.38660 35136 ft 484 kts 156°
2026-04-26 22:58 -21.07113 148.42240 35128 ft 483 kts 156°
2026-04-26 22:59 -21.12942 148.45776 35161 ft 484 kts 157°
2026-04-26 22:59 -21.18810 148.49351 35160 ft 484 kts 156°
2026-04-26 23:00 -21.24639 148.52916 35149 ft 484 kts 156°
2026-04-26 23:00 -21.30491 148.56495 35146 ft 484 kts 156°
2026-04-26 23:01 -21.36319 148.60057 35143 ft 484 kts 156°
2026-04-26 23:01 -21.42179 148.63639 35146 ft 484 kts 156°
2026-04-26 23:02 -21.48016 148.67212 35145 ft 484 kts 156°
2026-04-26 23:02 -21.53854 148.70786 35145 ft 484 kts 156°
2026-04-26 23:03 -21.59723 148.74390 35140 ft 484 kts 156°
2026-04-26 23:03 -21.65556 148.77977 35147 ft 485 kts 156°
2026-04-26 23:04 -21.71434 148.81593 35134 ft 485 kts 156°
2026-04-26 23:04 -21.77283 148.85190 35172 ft 486 kts 156°
2026-04-26 23:05 -21.83132 148.88792 35161 ft 485 kts 156°
2026-04-26 23:05 -21.89004 148.92415 35154 ft 485 kts 156°
2026-04-26 23:06 -21.94868 148.96034 35161 ft 484 kts 156°
2026-04-26 23:06 -22.00693 148.99630 35158 ft 484 kts 156°
2026-04-26 23:07 -22.06529 149.03240 35156 ft 484 kts 156°
2026-04-26 23:07 -22.12392 149.06866 35163 ft 485 kts 156°
2026-04-26 23:08 -22.18241 149.10490 35151 ft 486 kts 156°
2026-04-26 23:08 -22.24097 149.14119 35138 ft 487 kts 156°
2026-04-26 23:09 -22.29994 149.17778 35132 ft 488 kts 156°
2026-04-26 23:09 -22.35851 149.21426 35145 ft 488 kts 156°
2026-04-26 23:10 -22.41745 149.25094 35182 ft 488 kts 156°
2026-04-26 23:10 -22.47600 149.28737 35166 ft 488 kts 156°
2026-04-26 23:11 -22.53515 149.32413 35157 ft 489 kts 156°
2026-04-26 23:11 -22.59383 149.36074 35156 ft 489 kts 156°
2026-04-26 23:12 -22.65299 149.39772 35150 ft 489 kts 156°
2026-04-26 23:12 -22.71192 149.43452 35158 ft 490 kts 156°
2026-04-26 23:13 -22.77078 149.47134 35158 ft 490 kts 157°
2026-04-26 23:13 -22.82995 149.50839 35149 ft 489 kts 157°
2026-04-26 23:14 -22.88881 149.54521 35149 ft 490 kts 157°
2026-04-26 23:14 -22.94762 149.58217 35159 ft 491 kts 156°
2026-04-26 23:15 -23.00703 149.61962 35149 ft 492 kts 156°
2026-04-26 23:15 -23.06606 149.65677 35193 ft 493 kts 156°
2026-04-26 23:16 -23.12565 149.69425 35163 ft 495 kts 156°
2026-04-26 23:16 -23.18491 149.73176 35163 ft 495 kts 156°
2026-04-26 23:17 -23.24458 149.76958 35168 ft 496 kts 156°
2026-04-26 23:17 -23.30417 149.80735 35160 ft 496 kts 156°
2026-04-26 23:18 -23.35399 149.83895 35170 ft 496 kts 156°
2026-04-26 23:18 -23.41349 149.87669 35198 ft 497 kts 156°
2026-04-26 23:19 -23.47352 149.91490 35172 ft 499 kts 156°
2026-04-26 23:19 -23.53334 149.95297 35162 ft 499 kts 156°
2026-04-26 23:20 -23.59314 149.99106 35163 ft 500 kts 156°
2026-04-26 23:20 -23.65347 150.02948 35163 ft 500 kts 156°
2026-04-26 23:21 -23.71331 150.06768 35214 ft 500 kts 156°
2026-04-26 23:21 -23.77357 150.10620 35170 ft 500 kts 156°
2026-04-26 23:22 -23.83376 150.14461 35166 ft 500 kts 156°
2026-04-26 23:22 -23.89349 150.18289 35157 ft 500 kts 156°
2026-04-26 23:23 -23.95377 150.22155 35142 ft 502 kts 156°
2026-04-26 23:23 -24.01389 150.26012 35151 ft 503 kts 156°
2026-04-26 23:24 -24.07447 150.29902 35172 ft 504 kts 156°
2026-04-26 23:24 -24.13466 150.33777 35171 ft 505 kts 156°
2026-04-26 23:25 -24.19528 150.37681 35174 ft 505 kts 156°
2026-04-26 23:25 -24.25604 150.41590 35177 ft 505 kts 156°
2026-04-26 23:26 -24.31638 150.45486 35177 ft 506 kts 156°
2026-04-26 23:26 -24.37708 150.49414 35180 ft 505 kts 155°
2026-04-26 23:27 -24.43730 150.53310 35173 ft 504 kts 155°
2026-04-26 23:27 -24.49724 150.57392 35177 ft 510 kts 147°
2026-04-26 23:28 -24.55060 150.62568 35181 ft 514 kts 142°
2026-04-26 23:28 -24.60374 150.67856 35177 ft 514 kts 142°
2026-04-26 23:29 -24.65699 150.73133 35193 ft 515 kts 142°
2026-04-26 23:29 -24.71001 150.78391 35181 ft 515 kts 142°
2026-04-26 23:30 -24.76295 150.83669 35185 ft 516 kts 142°
2026-04-26 23:30 -24.81625 150.88990 35195 ft 516 kts 142°
2026-04-26 23:31 -24.86939 150.94288 35197 ft 516 kts 142°
2026-04-26 23:31 -24.92276 150.99615 35196 ft 516 kts 142°
2026-04-26 23:32 -24.97601 151.04932 35191 ft 516 kts 142°
2026-04-26 23:32 -25.02904 151.10233 35233 ft 516 kts 141°
2026-04-26 23:33 -25.08215 151.15567 35222 ft 514 kts 141°
2026-04-26 23:33 -25.13461 151.20840 35220 ft 512 kts 141°
2026-04-26 23:34 -25.18736 151.26136 35222 ft 511 kts 141°
2026-04-26 23:34 -25.23978 151.31411 35216 ft 511 kts 141°
2026-04-26 23:35 -25.29247 151.36710 35215 ft 510 kts 141°
2026-04-26 23:35 -25.34471 151.41971 35206 ft 510 kts 141°
2026-04-26 23:36 -25.39716 151.47270 35233 ft 509 kts 139°
2026-04-26 23:36 -25.44912 151.52549 35228 ft 505 kts 140°
2026-04-26 23:37 -25.50067 151.57766 34920 ft 502 kts 140°
2026-04-26 23:37 -25.52670 151.60394 33879 ft 511 kts 140°
2026-04-26 23:37 -25.55297 151.63048 32676 ft 508 kts 139°
2026-04-26 23:37 -25.57895 151.65681 31632 ft 501 kts 139°
2026-04-26 23:38 -25.60304 151.68424 30662 ft 494 kts 129°
2026-04-26 23:38 -25.62408 151.71346 29626 ft 488 kts 128°
2026-04-26 23:38 -25.64507 151.74280 28540 ft 481 kts 128°
2026-04-26 23:38 -25.66587 151.77185 27893 ft 475 kts 128°
2026-04-26 23:39 -25.68626 151.80040 27332 ft 468 kts 128°
2026-04-26 23:39 -25.70620 151.82828 26682 ft 465 kts 128°
2026-04-26 23:39 -25.72631 151.85636 26038 ft 461 kts 128°
2026-04-26 23:39 -25.74626 151.88421 25403 ft 457 kts 128°
2026-04-26 23:40 -25.76587 151.91165 24756 ft 447 kts 128°
2026-04-26 23:40 -25.78487 151.93827 24163 ft 433 kts 128°
2026-04-26 23:40 -25.80333 151.96412 23553 ft 431 kts 128°
2026-04-26 23:40 -25.82196 151.99018 22965 ft 427 kts 128°
2026-04-26 23:41 -25.84033 152.01593 22418 ft 422 kts 128°
2026-04-26 23:41 -25.85840 152.04129 21892 ft 419 kts 128°
2026-04-26 23:41 -25.87639 152.06651 21374 ft 414 kts 128°
2026-04-26 23:41 -25.89430 152.09159 20862 ft 411 kts 128°
2026-04-26 23:42 -25.91184 152.11613 20343 ft 408 kts 128°
2026-04-26 23:42 -25.94692 152.16546 19267 ft 403 kts 128°
2026-04-26 23:42 -25.96405 152.18960 18751 ft 400 kts 128°
2026-04-26 23:43 -25.98129 152.21387 18146 ft 398 kts 128°
2026-04-26 23:43 -25.99841 152.23797 17581 ft 393 kts 128°
2026-04-26 23:43 -26.01515 152.26156 17031 ft 389 kts 128°
2026-04-26 23:43 -26.03185 152.28510 16457 ft 385 kts 128°
2026-04-26 23:44 -26.04840 152.30846 15897 ft 381 kts 128°
2026-04-26 23:44 -26.06451 152.33124 15337 ft 374 kts 128°
2026-04-26 23:44 -26.08022 152.35346 14798 ft 355 kts 128°
2026-04-26 23:44 -26.09545 152.37500 14265 ft 352 kts 128°
2026-04-26 23:45 -26.11061 152.39641 13700 ft 350 kts 128°
2026-04-26 23:45 -26.12541 152.41733 13159 ft 346 kts 128°
2026-04-26 23:45 -26.14020 152.43827 12630 ft 340 kts 128°
2026-04-26 23:45 -26.15478 152.45888 12112 ft 337 kts 128°
2026-04-26 23:46 -26.16926 152.47938 11580 ft 334 kts 128°
2026-04-26 23:46 -26.18347 152.49951 11071 ft 333 kts 128°
2026-04-26 23:46 -26.19777 152.51977 10696 ft 326 kts 128°
2026-04-26 23:46 -26.21133 152.53897 10585 ft 312 kts 128°
2026-04-26 23:47 -26.22453 152.55765 10462 ft 300 kts 128°
2026-04-26 23:47 -26.23718 152.57559 10326 ft 287 kts 128°
2026-04-26 23:47 -26.24934 152.59286 9880 ft 279 kts 128°
2026-04-26 23:47 -26.26128 152.60982 9489 ft 275 kts 128°
2026-04-26 23:48 -26.27293 152.62641 9359 ft 270 kts 127°
2026-04-26 23:48 -26.28441 152.64272 9141 ft 270 kts 127°
2026-04-26 23:48 -26.29581 152.65941 8808 ft 269 kts 125°
2026-04-26 23:48 -26.30648 152.67653 8461 ft 268 kts 123°
2026-04-26 23:49 -26.31672 152.69372 8112 ft 268 kts 123°
2026-04-26 23:49 -26.32692 152.71103 7786 ft 266 kts 123°
2026-04-26 23:49 -26.33709 152.72825 7439 ft 263 kts 122°
2026-04-26 23:49 -26.34702 152.74493 7108 ft 255 kts 123°
2026-04-26 23:50 -26.35674 152.76117 6799 ft 253 kts 123°
2026-04-26 23:50 -26.36635 152.77716 6483 ft 242 kts 122°
2026-04-26 23:50 -26.37561 152.79256 6154 ft 237 kts 123°
2026-04-26 23:50 -26.38464 152.80758 5821 ft 228 kts 123°
2026-04-26 23:51 -26.39328 152.82201 5495 ft 219 kts 123°
2026-04-26 23:51 -26.40151 152.83574 5181 ft 210 kts 123°
2026-04-26 23:51 -26.40964 152.84929 4853 ft 210 kts 123°
2026-04-26 23:51 -26.41773 152.86275 4521 ft 211 kts 123°
2026-04-26 23:52 -26.42594 152.87643 4208 ft 212 kts 123°
2026-04-26 23:52 -26.43338 152.89017 4108 ft 201 kts 114°
2026-04-26 23:52 -26.43738 152.90483 3946 ft 195 kts 107°
2026-04-26 23:52 -26.44082 152.91926 3770 ft 190 kts 107°
2026-04-26 23:53 -26.44418 152.93334 3583 ft 185 kts 107°
2026-04-26 23:53 -26.44746 152.94701 3447 ft 182 kts 107°
2026-04-26 23:53 -26.45183 152.95980 3273 ft 173 kts 124°
2026-04-26 23:53 -26.46026 152.96918 3047 ft 171 kts 142°
2026-04-26 23:54 -26.46971 152.97716 2815 ft 168 kts 141°
2026-04-26 23:54 -26.47893 152.98501 2582 ft 165 kts 141°
2026-04-26 23:54 -26.48813 152.99288 2360 ft 165 kts 142°
2026-04-26 23:54 -26.49689 153.00037 2148 ft 154 kts 142°
2026-04-26 23:55 -26.50525 153.00757 1966 ft 149 kts 143°
2026-04-26 23:55 -26.51304 153.01425 1788 ft 137 kts 143°
2026-04-26 23:55 -26.52051 153.02064 1596 ft 133 kts 143°
2026-04-26 23:55 -26.52787 153.02695 1410 ft 133 kts 145°
2026-04-26 23:56 -26.53513 153.03319 1244 ft 131 kts 147°
2026-04-26 23:56 -26.54214 153.03981 1025 ft 134 kts 144°
2026-04-26 23:56 -26.54931 153.04613 824 ft 128 kts 149°
2026-04-26 23:56 -26.55652 153.05210 673 ft 132 kts 148°
2026-04-26 23:57 -26.56382 153.05835 572 ft 131 kts 149°
2026-04-26 23:57 -26.57114 153.06445 417 ft 132 kts 149°
2026-04-26 23:57 -26.57837 153.07060 231 ft 131 kts 148°
2026-04-26 23:57 -26.58552 153.07667 33 ft 126 kts 150°
2026-04-26 23:58 -26.59151 153.08172 22 ft 85 kts 142°
2026-04-26 23:58 -26.59502 153.08470 22 ft 51 kts 143°
2026-04-26 23:58 -26.59768 153.08695 24 ft 45 kts 142°
2026-04-26 23:58 -26.59973 153.08870 24 ft 22 kts 142°
2026-04-26 23:59 -26.60059 153.08933 22 ft 12 kts 176°
2026-04-26 23:59 -26.60123 153.08865 22 ft 14 kts 231°
2026-04-26 23:59 -26.60190 153.08823 21 ft 12 kts 149°
2026-04-26 23:59 -26.60262 153.08887 23 ft 15 kts 142°
2026-04-27 00:00 -26.60332 153.08941 23 ft 8 kts 165°
2026-04-27 00:00 -26.60373 153.08909 21 ft 8 kts 185°
2026-04-27 00:00 -26.60415 153.08929 21 ft 5 kts 181°
2026-04-27 00:00 -26.60437 153.08899 23 ft 4 kts 232°
2026-04-27 00:01 -26.60445 153.08888 21 ft 0 kts 232°